GW5306 Weather Reports


time (UTC)temp
C
wind
direction
speed
KPH
gust
KPH
rain 1hr
cm
rain 24hr
cm
rain mn
cm
humidity
%
barometer
mb
20260507233446 24 315 0.0 0.0 0.00 0.00 0.48 90 1009.0
20260507232947 24 315 0.0 0.0 0.00 0.00 0.48 90 1009.0
20260507232446 24 315 0.0 0.0 0.00 0.00 0.48 90 1009.0
20260507231947 23 315 0.0 0.0 0.00 0.00 0.48 90 1009.0
20260507231447 23 315 0.0 1.6 0.00 0.00 0.48 91 1009.0
20260507230946 23 315 1.6 1.6 0.00 0.00 0.48 91 1009.0
20260507230446 23 324 1.6 1.6 0.00 0.00 0.48 91 1009.0
20260507225946 23 322 3.2 3.2 0.00 0.00 0.48 90 1009.0
20260507225446 24 284 1.6 3.2 0.00 0.00 0.48 90 1009.0
20260507224946 24 258 0.0 0.0 0.00 0.00 0.48 90 1009.0
20260507224446 24 240 1.6 1.6 0.00 0.00 0.48 89 1009.0
20260507223946 24 234 0.0 1.6 0.00 0.00 0.48 90 1009.0
20260507223446 24 224 1.6 1.6 0.00 0.00 0.48 90 1009.0
20260507222946 24 248 3.2 3.2 0.00 0.00 0.48 90 1009.0
20260507222446 24 236 1.6 1.6 0.00 0.00 0.48 90 1009.0
20260507221947 24 235 1.6 1.6 0.00 0.00 0.48 90 1009.0
20260507221446 24 241 0.0 0.0 0.00 0.00 0.48 90 1009.0
20260507220946 24 263 0.0 1.6 0.00 0.00 0.48 90 1009.0
20260507220446 23 265 0.0 0.0 0.00 0.00 0.48 91 1009.0
20260507215947 23 267 0.0 1.6 0.00 0.00 0.48 91 1009.0
20260507215446 23 267 1.6 1.6 0.00 0.00 0.48 91 1009.0
20260507214946 23 267 1.6 3.2 0.00 0.00 0.48 91 1009.0
20260507214446 23 264 1.6 1.6 0.00 0.00 0.48 91 1009.0
20260507213946 23 299 1.6 3.2 0.00 0.00 0.48 90 1009.0
20260507213446 23 287 1.6 3.2 0.00 0.00 0.48 90 1009.0
20260507212947 23 234 1.6 1.6 0.00 0.00 0.48 90 1009.0
20260507212447 24 220 0.0 1.6 0.00 0.00 0.48 89 1009.0
20260507211946 23 220 0.0 1.6 0.00 0.00 0.48 89 1009.0
20260507211446 23 200 0.0 0.0 0.00 0.00 0.48 88 1009.0
20260507210947 23 200 0.0 0.0 0.00 0.00 0.48 88 1009.0
20260507210448 23 200 0.0 0.0 0.00 0.00 0.48 88 1009.0
20260507205946 24 165 0.0 0.0 0.00 0.00 0.48 89 1009.0
20260507205446 24 164 0.0 0.0 0.00 0.00 0.48 88 1009.0
20260507204947 24 164 0.0 0.0 0.00 0.00 0.48 88 1009.0
20260507204447 24 164 0.0 0.0 0.00 0.00 0.48 90 1009.0
20260507203946 24 189 3.2 3.2 0.00 0.00 0.48 90 1009.0
20260507203446 24 187 3.2 4.8 0.00 0.00 0.48 89 1009.0
20260507202946 24 168 3.2 4.8 0.13 0.00 0.48 89 1009.0
20260507202446 24 158 4.8 6.4 0.13 0.00 0.48 89 1009.0
20260507201947 24 181 3.2 3.2 0.00 0.00 0.46 90 1009.0
20260507201446 23 184 4.8 4.8 0.00 0.00 0.46 90 1009.0
20260507200946 23 142 4.8 6.4 0.00 0.00 0.46 90 1009.0
20260507200447 23 162 4.8 4.8 0.00 0.00 0.46 90 1009.0
20260507195947 23 160 3.2 3.2 0.00 0.00 0.46 91 1009.0
20260507195446 23 152 1.6 1.6 0.00 0.00 0.46 91 1009.0
20260507194947 23 156 1.6 1.6 0.00 0.00 0.46 91 1009.0
20260507194446 23 153 1.6 1.6 0.00 0.00 0.46 91 1009.0
20260507193946 24 161 3.2 4.8 0.00 0.00 0.46 91 1009.0
20260507193447 24 225 0.0 1.6 0.00 0.00 0.46 91 1009.0
20260507192946 24 228 0.0 0.0 0.00 0.00 0.46 91 1009.0
20260507192446 23 253 1.6 1.6 0.00 0.00 0.46 91 1010.0
20260507191947 24 284 0.0 0.0 0.00 0.00 0.46 91 1010.0
20260507191446 23 177 1.6 3.2 0.00 0.00 0.46 91 1010.0
20260507190947 23 244 6.4 9.7 0.00 0.00 0.46 91 1010.0
20260507190446 24 251 4.8 6.4 0.00 0.00 0.46 91 1010.0
20260507185947 24 231 1.6 3.2 0.00 0.00 0.46 91 1010.0
20260507185447 24 232 3.2 4.8 0.00 0.00 0.46 90 1010.0
20260507184946 23 235 3.2 4.8 1.19 0.00 0.46 89 1010.0
20260507184448 24 263 8.0 11.3 2.59 0.00 0.46 89 1010.0
20260507183946 25 207 1.6 3.2 1.68 0.00 0.28 88 1010.0
20260507183446 25 152 3.2 4.8 0.18 0.00 0.03 86 1010.0
20260507182948 26 152 3.2 4.8 0.00 0.00 0.00 84 1010.0
20260507182447 26 147 11.3 12.9 0.00 0.00 0.00 81 1010.0
20260507181946 26 126 8.0 11.3 0.00 0.00 0.00 82 1010.0
20260507181447 26 119 6.4 9.7 0.00 0.00 0.00 83 1010.0
20260507180946 26 206 3.2 6.4 0.00 0.00 0.00 84 1010.0
20260507180447 26 131 12.9 14.5 0.00 0.00 0.00 84 1010.0
20260507175947 27 164 11.3 16.1 0.00 0.00 0.00 83 1010.0
20260507175447 27 185 6.4 9.7 0.00 0.00 0.00 82 1010.0
20260507174947 27 191 12.9 20.9 0.00 0.00 0.00 80 1010.0
20260507174447 28 184 8.0 11.3 0.00 0.00 0.00 78 1010.0
20260507173946 28 152 9.7 16.1 0.00 0.00 0.00 75 1009.0
20260507173446 28 130 9.7 12.9 0.00 0.00 0.00 74 1009.0
20260507172946 28 122 6.4 6.4 0.00 0.00 0.00 73 1010.0
20260507172446 29 170 4.8 6.4 0.00 0.00 0.00 74 1010.0
20260507171948 30 184 6.4 9.7 0.00 0.00 0.00 74 1010.0
20260507171447 30 155 9.7 12.9 0.00 0.00 0.00 74 1009.0
20260507170946 30 241 3.2 4.8 0.00 0.00 0.00 74 1009.0
20260507170447 29 192 4.8 6.4 0.00 0.00 0.00 75 1009.0
20260507165946 28 140 4.8 4.8 0.00 0.00 0.00 78 1009.0
20260507165447 29 127 3.2 3.2 0.00 0.00 0.00 76 1009.0
20260507164946 28 346 0.0 0.0 0.00 0.00 0.00 76 1008.0
20260507164447 28 345 0.0 0.0 0.00 0.00 0.00 77 1008.0
20260507163956 28 345 1.6 3.2 0.00 0.00 0.00 77 1008.0
20260507163446 29 346 3.2 3.2 0.00 0.00 0.00 77 1008.0
20260507162947 29 6 1.6 1.6 0.00 0.00 0.00 76 1008.0
20260507162447 29 10 3.2 4.8 0.00 0.00 0.00 74 1008.0
20260507161946 30 298 3.2 3.2 0.00 0.00 0.00 73 1008.0
20260507161446 29 296 0.0 1.6 0.00 0.00 0.00 73 1009.0
20260507160946 29 295 0.0 0.0 0.00 0.00 0.00 73 1008.0
20260507160446 29 295 1.6 1.6 0.00 0.00 0.00 74 1009.0
20260507155946 29 296 1.6 1.6 0.00 0.00 0.00 74 1008.0
20260507155447 29 295 0.0 0.0 0.00 0.00 0.00 73 1008.0
20260507154946 29 296 1.6 1.6 0.00 0.00 0.00 74 1008.0
20260507154447 29 295 0.0 1.6 0.00 0.00 0.00 74 1008.0
20260507153500 29 295 0.0 1.6 0.00 0.00 0.00 73 1008.0
20260507152946 29 297 1.6 1.6 0.00 0.00 0.00 73 1008.0
20260507152447 29 305 0.0 1.6 0.00 0.00 0.00 75 1008.0
20260507151948 29 305 1.6 1.6 0.00 0.00 0.00 75 1008.0
20260507151447 29 302 1.6 1.6 0.00 0.00 0.00 76 1007.0
20260507150946 29 302 0.0 0.0 0.00 0.00 0.00 77 1008.0
20260507150447 29 304 0.0 1.6 0.00 0.00 0.00 77 1008.0
20260507145946 29 303 0.0 1.6 0.00 0.00 0.00 77 1007.0
20260507145447 30 62 0.0 1.6 0.00 0.00 0.00 76 1007.0
20260507144946 30 62 0.0 1.6 0.00 0.00 0.00 76 1007.0
20260507144446 30 63 1.6 1.6 0.00 0.00 0.00 75 1007.0
20260507143947 30 62 0.0 0.0 0.00 0.00 0.00 73 1007.0
20260507143446 30 63 0.0 1.6 0.00 0.00 0.00 72 1007.0
20260507142946 30 68 1.6 1.6 0.00 0.00 0.00 74 1007.0
20260507142446 30 70 0.0 1.6 0.00 0.00 0.00 74 1007.0
20260507141947 30 71 1.6 1.6 0.00 0.00 0.00 74 1007.0
20260507141452 30 71 1.6 1.6 0.00 0.00 0.00 73 1007.0
20260507140946 30 72 1.6 1.6 0.00 0.00 0.00 72 1007.0
20260507140447 30 72 0.0 0.0 0.00 0.00 0.00 71 1006.0
20260507135946 31 72 0.0 0.0 0.00 0.00 0.00 69 1006.0
20260507135447 31 72 0.0 0.0 0.00 0.00 0.00 68 1006.0
20260507134947 31 72 0.0 0.0 0.00 0.00 0.00 67 1006.0
20260507134446 31 72 0.0 0.0 0.00 0.00 0.00 64 1006.0
20260507133946 31 71 0.0 0.0 0.00 0.00 0.00 64 1006.0
20260507133447 32 71 0.0 0.0 0.00 0.00 0.00 63 1005.0
20260507132947 32 63 1.6 1.6 0.00 0.00 0.00 63 1006.0
20260507132448 32 87 1.6 3.2 0.00 0.00 0.00 63 1006.0
20260507131948 32 98 3.2 3.2 0.00 0.00 0.00 64 1005.0
20260507131447 32 117 3.2 3.2 0.00 0.00 0.00 63 1005.0
20260507130947 32 119 4.8 4.8 0.00 0.00 0.00 63 1005.0
20260507130449 32 122 3.2 3.2 0.00 0.00 0.00 63 1005.0
20260507125947 31 135 3.2 4.8 0.00 0.00 0.00 63 1005.0
20260507125446 32 141 3.2 3.2 0.00 0.00 0.00 64 1005.0
20260507124947 32 110 3.2 3.2 0.00 0.00 0.00 64 1005.0
20260507124446 32 144 3.2 3.2 0.00 0.00 0.00 63 1005.0
20260507123948 32 89 4.8 6.4 0.00 0.00 0.00 62 1005.0
20260507123447 32 103 4.8 6.4 0.00 0.00 0.00 62 1006.0
20260507122948 32 112 1.6 3.2 0.00 0.00 0.00 63 1005.0
20260507122447 32 102 4.8 6.4 0.00 0.00 0.00 61 1005.0
20260507121947 32 110 4.8 4.8 0.00 0.00 0.00 61 1005.0
20260507121446 32 107 6.4 6.4 0.00 0.00 0.00 60 1005.0
20260507120946 33 95 4.8 6.4 0.00 0.00 0.00 59 1005.0
20260507120447 33 114 6.4 6.4 0.00 0.00 0.00 59 1005.0
20260507115946 33 127 6.4 9.7 0.00 0.00 0.00 60 1005.0
20260507115447 33 115 6.4 9.7 0.00 0.00 0.00 59 1005.0
20260507114947 33 147 6.4 6.4 0.00 0.00 0.00 59 1005.0
20260507114446 33 115 1.6 3.2 0.00 0.00 0.00 59 1005.0
20260507113946 33 124 4.8 4.8 0.00 0.00 0.00 58 1005.0
20260507113447 33 107 0.0 1.6 0.00 0.00 0.00 59 1005.0
20260507112946 33 147 3.2 4.8 0.00 0.00 0.00 58 1005.0
20260507112446 33 98 1.6 3.2 0.00 0.00 0.00 59 1005.0
20260507111948 33 107 4.8 6.4 0.00 0.00 0.00 59 1005.0
20260507111447 33 134 1.6 3.2 0.00 0.00 0.00 58 1005.0
20260507110948 33 74 3.2 4.8 0.00 0.00 0.00 57 1005.0
20260507110446 33 132 4.8 4.8 0.00 0.00 0.00 57 1005.0
20260507105946 33 41 3.2 6.4 0.00 0.00 0.00 57 1005.0
20260507105446 33 62 4.8 6.4 0.00 0.00 0.00 57 1005.0
20260507104949 33 91 1.6 1.6 0.00 0.00 0.00 57 1005.0
20260507104446 33 121 1.6 1.6 0.00 0.00 0.00 58 1005.0
20260507103946 33 122 3.2 3.2 0.00 0.00 0.00 58 1005.0
20260507103446 33 64 4.8 4.8 0.00 0.00 0.00 58 1005.0
20260507102946 33 190 0.0 0.0 0.00 0.00 0.00 57 1005.0
20260507102446 33 92 1.6 3.2 0.00 0.00 0.00 57 1005.0
20260507101946 33 119 0.0 1.6 0.00 0.00 0.00 57 1006.0
20260507100946 33 18 0.0 0.0 0.00 0.00 0.00 57 1006.0
20260507100446 33 13 3.2 4.8 0.00 0.00 0.00 56 1006.0
20260507095947 34 194 0.0 0.0 0.00 0.00 0.00 56 1006.0
20260507095446 33 142 1.6 1.6 0.00 0.00 0.00 59 1006.0
20260507094946 33 138 6.4 6.4 0.00 0.00 0.00 58 1006.0
20260507094446 33 159 3.2 4.8 0.00 0.00 0.00 58 1006.0
20260507093947 33 87 4.8 4.8 0.00 0.00 0.00 56 1006.0
20260507093447 33 135 4.8 4.8 0.00 0.00 0.00 58 1006.0
20260507092946 33 105 3.2 3.2 0.00 0.00 0.00 57 1006.0
20260507092446 33 154 3.2 3.2 0.00 0.00 0.00 55 1006.0
20260507091947 33 351 0.0 1.6 0.00 0.00 0.00 55 1006.0
20260507091447 33 47 1.6 1.6 0.00 0.00 0.00 55 1006.0
20260507090946 34 8 6.4 6.4 0.00 0.00 0.00 54 1006.0
20260507090446 35 3 0.0 0.0 0.00 0.00 0.00 53 1006.0
20260507085946 35 257 1.6 1.6 0.00 0.00 0.00 53 1006.0
20260507085446 34 311 8.0 9.7 0.00 0.00 0.00 54 1006.0
20260507084946 34 20 3.2 4.8 0.00 0.00 0.00 54 1006.0
20260507084447 33 42 4.8 4.8 0.00 0.00 0.00 56 1006.0
20260507083948 34 18 3.2 3.2 0.00 0.00 0.00 56 1006.0
20260507083447 33 40 6.4 6.4 0.00 0.00 0.00 56 1006.0
20260507082947 33 29 1.6 3.2 0.00 0.00 0.00 56 1007.0
20260507082446 34 344 6.4 6.4 0.00 0.00 0.00 55 1007.0
20260507081946 34 307 6.4 6.4 0.00 0.00 0.00 56 1007.0
20260507081446 33 288 4.8 6.4 0.00 0.00 0.00 58 1007.0
20260507080946 34 299 1.6 3.2 0.00 0.00 0.00 56 1007.0
20260507080446 33 186 0.0 1.6 0.00 0.00 0.00 56 1007.0
20260507075946 33 264 3.2 4.8 0.00 0.00 0.00 56 1007.0
20260507075447 33 219 1.6 3.2 0.00 0.00 0.00 58 1007.0
20260507074946 33 22 4.8 4.8 0.00 0.00 0.00 58 1007.0
20260507074447 33 296 0.0 1.6 0.00 0.00 0.00 58 1007.0
20260507073949 33 67 1.6 1.6 0.00 0.00 0.00 58 1007.0
20260507073447 32 349 3.2 4.8 0.00 0.00 0.00 59 1008.0
20260507072947 33 217 0.0 0.0 0.00 0.00 0.00 58 1008.0
20260507072446 32 292 1.6 1.6 0.00 0.00 0.00 61 1008.0
20260507071947 32 264 1.6 1.6 0.00 0.00 0.00 60 1008.0
20260507071446 33 277 3.2 3.2 0.00 0.00 0.00 59 1008.0
20260507070946 32 328 4.8 4.8 0.00 0.00 0.00 60 1008.0
20260507070447 33 263 1.6 3.2 0.00 0.00 0.00 59 1008.0
20260507065946 33 20 0.0 1.6 0.00 0.00 0.00 59 1008.0
20260507065447 33 351 1.6 1.6 0.00 0.00 0.00 58 1009.0
20260507064946 33 312 6.4 6.4 0.00 0.00 0.00 59 1009.0
20260507064446 32 311 1.6 3.2 0.00 0.00 0.00 60 1009.0
20260507063946 32 358 6.4 9.7 0.00 0.00 0.00 62 1009.0
20260507063446 33 204 1.6 1.6 0.00 0.00 0.00 58 1009.0
20260507062946 33 265 3.2 3.2 0.00 0.00 0.00 61 1009.0
20260507062447 32 239 1.6 1.6 0.00 0.00 0.00 62 1009.0
20260507061946 32 268 0.0 1.6 0.00 0.00 0.00 64 1009.0
20260507061447 31 8 4.8 4.8 0.00 0.00 0.00 64 1009.0
20260507060947 31 251 4.8 4.8 0.00 0.00 0.00 66 1009.0
20260507060447 32 198 3.2 4.8 0.00 0.00 0.00 66 1010.0
20260507055947 32 244 1.6 1.6 0.00 0.00 0.00 65 1010.0
20260507055447 32 235 3.2 4.8 0.00 0.00 0.00 66 1010.0
20260507054946 31 321 1.6 1.6 0.00 0.00 0.00 68 1010.0
20260507054447 31 294 3.2 4.8 0.00 0.00 0.00 66 1010.0
20260507053946 32 227 1.6 1.6 0.00 0.00 0.00 66 1010.0
20260507053447 32 267 3.2 3.2 0.00 0.00 0.00 65 1010.0
20260507052946 31 231 1.6 1.6 0.00 0.00 0.00 66 1010.0
20260507052446 32 222 3.2 3.2 0.00 0.00 0.00 66 1010.0
20260507051948 31 231 1.6 1.6 0.00 0.00 0.00 66 1010.0
20260507051447 31 207 0.0 3.2 0.00 0.00 0.00 67 1010.0
20260507050947 30 121 1.6 1.6 0.00 0.00 0.00 71 1010.0
20260507050446 31 194 6.4 6.4 0.00 0.00 0.00 69 1010.0
20260507045946 30 27 0.0 1.6 0.00 0.00 0.00 72 1010.0
20260507045447 30 324 3.2 3.2 0.00 0.00 0.00 72 1010.0
20260507044946 31 271 0.0 0.0 0.00 0.00 0.00 71 1010.0
20260507044447 31 247 0.0 1.6 0.00 0.00 0.00 71 1010.0
20260507043946 30 246 1.6 1.6 0.00 0.00 0.00 71 1010.0
20260507043447 30 247 0.0 0.0 0.00 0.00 0.00 73 1011.0
20260507042946 30 242 3.2 3.2 0.00 0.00 0.00 73 1011.0
20260507042447 29 128 1.6 1.6 0.00 0.00 0.00 75 1011.0
20260507041946 30 139 3.2 4.8 0.00 0.00 0.00 74 1011.0
20260507041447 30 214 0.0 1.6 0.00 0.00 0.00 75 1011.0
20260507040947 30 125 4.8 4.8 0.00 0.00 0.00 74 1011.0
20260507040446 28 84 1.6 1.6 0.00 0.00 0.00 75 1011.0
20260507035946 30 89 0.0 1.6 0.00 0.00 0.00 73 1011.0
20260507035447 30 49 1.6 3.2 0.00 0.00 0.00 73 1011.0
20260507034948 29 337 4.8 4.8 0.00 0.00 0.00 76 1011.0
20260507034446 29 295 1.6 1.6 0.00 0.00 0.00 76 1011.0
20260507033947 29 339 0.0 1.6 0.00 0.00 0.00 77 1011.0
20260507033446 28 338 1.6 3.2 0.00 0.00 0.00 78 1011.0
20260507032946 28 336 3.2 4.8 0.00 0.00 0.00 79 1011.0
20260507032446 28 78 0.0 1.6 0.00 0.00 0.00 77 1011.0
20260507031946 28 36 1.6 1.6 0.00 0.00 0.00 78 1011.0
20260507031446 28 42 1.6 3.2 0.00 0.00 0.00 78 1011.0
20260507030946 28 0 3.2 3.2 0.00 0.00 0.00 79 1010.0
20260507030448 28 52 0.0 1.6 0.00 0.00 0.00 78 1010.0
20260507025947 28 337 0.0 0.0 0.00 0.00 0.00 79 1010.0
20260507025447 28 337 0.0 0.0 0.00 0.00 0.00 79 1011.0
20260507024947 28 337 1.6 3.2 0.00 0.00 0.00 81 1010.0
20260507024447 28 337 0.0 0.0 0.00 0.00 0.00 82 1010.0
20260507023946 27 16 0.0 0.0 0.00 0.00 0.00 83 1010.0
20260507023447 27 359 0.0 1.6 0.00 0.00 0.00 84 1010.0
20260507022947 27 5 0.0 0.0 0.00 0.00 0.00 85 1010.0
20260507022447 27 7 0.0 0.0 0.00 0.00 0.00 85 1010.0
20260507021947 27 8 0.0 0.0 0.00 0.00 0.00 85 1010.0
20260507021446 27 10 1.6 1.6 0.00 0.00 0.00 86 1010.0
20260507020946 27 337 3.2 3.2 0.00 0.00 0.00 86 1010.0
20260507020447 26 24 3.2 3.2 0.00 0.00 0.00 88 1010.0
20260507015948 26 21 3.2 4.8 0.00 0.00 0.00 88 1010.0
20260507015446 26 16 3.2 3.2 0.00 0.00 0.00 89 1010.0
20260507014946 26 334 1.6 3.2 0.00 0.00 0.00 89 1010.0
20260507014446 26 330 3.2 3.2 0.00 0.00 0.00 88 1010.0
20260507013946 26 323 1.6 3.2 0.00 0.00 0.00 89 1010.0
20260507013447 26 323 0.0 0.0 0.00 0.00 0.00 89 1010.0
20260507012956 26 323 1.6 1.6 0.00 0.00 0.00 90 1010.0
20260507012446 26 323 0.0 0.0 0.00 0.00 0.00 90 1009.0
20260507011947 25 323 0.0 0.0 0.00 0.00 0.00 92 1009.0
20260507011447 25 323 0.0 0.0 0.00 0.00 0.00 92 1009.0
20260507010446 25 323 0.0 1.6 0.00 0.00 0.00 92 1009.0
20260507005946 25 323 0.0 0.0 0.00 0.00 0.00 92 1009.0
20260507005446 25 323 0.0 0.0 0.00 0.00 0.00 93 1009.0
20260507004947 25 322 0.0 0.0 0.00 0.00 0.00 93 1009.0
20260507004446 25 322 0.0 0.0 0.00 0.00 0.00 93 1009.0
20260507003947 25 322 0.0 0.0 0.00 0.00 0.00 94 1009.0
20260507003447 25 321 0.0 0.0 0.00 0.00 0.00 94 1009.0
20260507002948 25 321 0.0 0.0 0.00 0.00 0.00 94 1009.0
20260507002446 25 321 0.0 0.0 0.00 0.00 0.00 94 1009.0
20260507001946 25 321 1.6 1.6 0.00 0.00 0.00 94 1009.0
20260507001446 25 322 0.0 1.6 0.00 0.00 0.00 94 1009.0
20260507000946 25 322 0.0 0.0 0.00 0.00 0.00 94 1009.0
20260507000446 25 322 1.6 1.6 0.00 0.00 0.00 95 1008.0
20260506235946 25 322 0.0 1.6 0.00 0.00 0.00 95 1009.0
20260506235446 25 276 3.2 3.2 0.00 0.00 0.00 95 1008.0
20260506234947 25 252 1.6 1.6 0.00 0.00 0.00 95 1008.0
20260506234453 25 231 0.0 0.0 0.00 0.00 0.00 95 1008.0
20260506233946 25 231 0.0 1.6 0.00 0.00 0.00 95 1008.0